TimePST,TemperatureF,Dew PointF,Humidity,Sea Level PressureIn,VisibilityMPH,Wind Direction,Wind SpeedMPH,Gust SpeedMPH,PrecipitationIn,Events,Conditions,WindDirDegrees,DateUTC
12:22 AM,36.0,36.0,100,30.06,0.5,South,16.1,29.9,0.03,Fog-Rain,Light Rain,180,2014-02-08 08:22:00
12:52 AM,36.0,36.0,100,30.08,0.5,South,17.3,-,0.06,Fog-Rain,Light Rain,180,2014-02-08 08:52:00
1:37 AM,36.0,36.0,100,30.09,0.2,South,15.0,-,0.06,Fog-Rain,Light Rain,170,2014-02-08 09:37:00
1:45 AM,36.0,36.0,100,30.09,0.5,South,13.8,-,0.06,Fog-Rain,Light Rain,170,2014-02-08 09:45:00
1:52 AM,36.0,36.0,100,30.10,0.5,SSE,13.8,-,0.07,Fog-Rain,Light Rain,160,2014-02-08 09:52:00
2:09 AM,36.0,36.0,100,30.09,0.2,SSE,12.7,-,0.02,Fog-Rain,Light Rain,150,2014-02-08 10:09:00
2:39 AM,36.0,36.0,100,30.10,0.5,SSE,12.7,20.7,0.04,Fog,Fog,160,2014-02-08 10:39:00
2:52 AM,36.0,36.0,100,30.12,0.5,SSE,16.1,21.9,0.05,Fog-Rain,Light Rain,160,2014-02-08 10:52:00
3:52 AM,37.0,37.0,100,30.10,0.5,SSE,11.5,20.7,0.06,Fog-Rain,Rain,160,2014-02-08 11:52:00
4:52 AM,37.0,37.0,100,30.09,0.5,SSE,12.7,20.7,0.12,Fog-Rain,Light Rain,160,2014-02-08 12:52:00
5:52 AM,37.9,37.9,100,30.10,0.5,South,15.0,-,0.17,Fog-Rain,Rain,170,2014-02-08 13:52:00
6:52 AM,37.9,37.9,100,30.09,0.5,South,15.0,24.2,0.22,Fog-Rain,Rain,170,2014-02-08 14:52:00
7:31 AM,37.9,37.9,100,30.10,0.2,South,12.7,-,0.13,Fog-Rain,Rain,170,2014-02-08 15:31:00
7:52 AM,37.9,37.9,100,30.10,0.2,South,11.5,-,0.22,Fog-Rain,Rain,170,2014-02-08 15:52:00
8:52 AM,39.0,39.0,100,30.08,0.2,SSE,15.0,24.2,0.25,Fog-Rain,Heavy Rain,160,2014-02-08 16:52:00
9:52 AM,39.0,39.0,100,30.08,0.2,SSE,15.0,27.6,0.32,Fog-Rain,Heavy Rain,160,2014-02-08 17:52:00
10:52 AM,39.9,39.9,100,30.07,0.2,South,15.0,24.2,0.30,Fog-Rain,Rain,170,2014-02-08 18:52:00
11:22 AM,41.0,39.9,96,30.12,0.5,South,15.0,-,0.13,Fog-Rain,Heavy Rain,180,2014-02-08 19:22:00
11:35 AM,39.9,39.9,100,30.11,0.2,South,16.1,-,0.17,Fog-Rain,Heavy Rain,170,2014-02-08 19:35:00
11:52 AM,41.0,39.9,96,30.08,0.2,South,16.1,-,0.26,Fog-Rain,Rain,170,2014-02-08 19:52:00
12:52 PM,39.9,39.9,100,30.09,0.2,South,17.3,25.3,0.23,Fog-Rain,Heavy Rain,170,2014-02-08 20:52:00
1:52 PM,39.9,39.9,100,30.07,0.2,South,17.3,-,0.30,Fog-Rain,Heavy Rain,170,2014-02-08 21:52:00
2:52 PM,41.0,39.9,96,30.08,0.2,South,15.0,27.6,0.36,Fog-Rain,Heavy Rain,180,2014-02-08 22:52:00
3:10 PM,41.0,39.9,96,30.11,0.5,South,13.8,24.2,0.12,Fog-Rain,Heavy Rain,180,2014-02-08 23:10:00
3:38 PM,41.0,39.9,96,30.10,0.2,SSE,21.9,31.1,0.22,Fog-Rain,Rain,160,2014-02-08 23:38:00
3:52 PM,39.9,39.9,100,30.08,0.2,South,17.3,28.8,0.32,Fog-Rain,Heavy Rain,180,2014-02-08 23:52:00
4:21 PM,41.0,41.0,100,30.10,0.5,SSE,13.8,18.4,0.16,Fog-Rain,Rain,160,2014-02-09 00:21:00
4:35 PM,41.0,39.9,96,30.10,0.2,SSE,18.4,27.6,0.22,Fog-Rain,Rain,160,2014-02-09 00:35:00
4:52 PM,41.0,39.9,96,30.07,0.2,South,17.3,27.6,0.26,Fog-Rain,Rain,170,2014-02-09 00:52:00
5:15 PM,41.0,41.0,100,30.10,0.8,SSW,8.1,23.0,0.14,Rain,Heavy Rain,200,2014-02-09 01:15:00
5:52 PM,41.0,41.0,100,30.06,0.8,SSE,15.0,23.0,0.34,Rain,Heavy Rain,160,2014-02-09 01:52:00
6:32 PM,42.1,41.0,96,30.13,1.5,SSW,10.4,19.6,0.22,Rain,Heavy Rain,200,2014-02-09 02:32:00
6:42 PM,41.0,41.0,100,30.13,1.0,South,9.2,-,0.27,Rain,Rain,180,2014-02-09 02:42:00
6:49 PM,41.0,41.0,100,30.13,0.8,South,10.4,17.3,0.30,Rain,Rain,180,2014-02-09 02:49:00
6:52 PM,41.0,41.0,100,30.09,0.8,South,9.2,17.3,0.32,Rain,Heavy Rain,180,2014-02-09 02:52:00
7:16 PM,42.1,41.0,96,30.12,1.0,South,12.7,17.3,0.14,Rain,Rain,180,2014-02-09 03:16:00
7:25 PM,42.1,41.0,96,30.12,0.8,South,13.8,-,0.18,Rain,Rain,170,2014-02-09 03:25:00
7:42 PM,42.1,41.0,96,30.13,1.0,South,10.4,20.7,0.25,Rain,Rain,180,2014-02-09 03:42:00
7:52 PM,42.1,41.0,96,30.09,0.8,South,12.7,-,0.29,Rain,Heavy Rain,180,2014-02-09 03:52:00
8:26 PM,42.1,42.1,100,30.14,1.0,SW,6.9,18.4,0.16,Rain,Heavy Rain,230,2014-02-09 04:26:00
8:34 PM,42.1,42.1,100,30.14,1.0,SW,4.6,-,0.22,Rain,Heavy Rain,230,2014-02-09 04:34:00
8:52 PM,42.1,42.1,100,30.10,1.0,SSW,12.7,19.6,0.33,Rain,Rain,200,2014-02-09 04:52:00
9:03 PM,42.1,41.0,96,30.15,2.0,South,10.4,19.6,0.05,Rain,Heavy Rain,190,2014-02-09 05:03:00
9:08 PM,42.1,41.0,96,30.15,1.2,South,15.0,24.2,0.07,Rain,Rain,180,2014-02-09 05:08:00
9:18 PM,42.1,41.0,96,30.16,1.0,South,16.1,24.2,0.13,Rain,Heavy Rain,190,2014-02-09 05:18:00
9:50 PM,42.8,42.8,100,30.15,0.8,South,11.5,-,0.30,Rain,Heavy Rain,180,2014-02-09 05:50:00
9:52 PM,42.1,42.1,100,30.11,0.8,South,11.5,-,0.31,Rain,Heavy Rain,190,2014-02-09 05:52:00
10:07 PM,42.1,41.0,96,30.16,1.2,South,13.8,24.2,0.06,Rain,Heavy Rain,180,2014-02-09 06:07:00
10:19 PM,42.1,42.1,100,30.16,0.8,South,13.8,26.5,0.13,Rain,Heavy Rain,190,2014-02-09 06:19:00
10:52 PM,42.1,42.1,100,30.12,0.8,South,12.7,26.5,0.28,Rain,Rain,180,2014-02-09 06:52:00
11:52 PM,42.1,42.1,100,30.11,0.8,South,11.5,-,0.34,Rain,Heavy Rain,180,2014-02-09 07:52:00